Mojave, CA

9:21 PM PST on December 11, 2019 (GMT -0800)
Mojave

Weather History for KMHV - November, 2019

Change the Weather History Date:

Sunday, November 17, 2019

  Actual Average Record
Temperature  
Mean Temperature 62 °F -  
Max Temperature 75 °F 64 °F 79 °F (1977)
Min Temperature 48 °F 41 °F 28 °F (1971)
Degree Days  
Heating Degree Days 4    
Growing Degree Days 12 (Base 50)    
Moisture  
Dew Point 18 °F    
Average Humidity 20    
Maximum Humidity 32    
Minimum Humidity 12    
Precipitation  
Precipitation 0.00 in - - ()
Sea Level Pressure  
Sea Level Pressure 30.14 in    
Wind  
Wind Speed 6 mph ()    
Max Wind Speed 12 mph    
Max Gust Speed 13 mph    
Visibility 10.0 miles    
Events      
Averages and records for this station are not official NWS values.
T = Trace of Precipitation, MM = Missing Value Source: Averaged Metar Reports

Daily Weather History Graph

Daily Weather History Graph

Search for Another Location

Airport or City:

Astronomy

Nov. 17, 2019 Rise Set
Actual Time 6:29 AM PST 4:45 PM PST
Civil Twilight 6:01 AM PST 5:12 PM PST
Nautical Twilight 5:31 AM PST 5:43 PM PST
Astronomical Twilight 5:01 AM PST 6:13 PM PST
Moon 9:30 PM PST (11/17) 11:15 AM PST (11/17)
Length of Visible Light 11h 10m
Length of Day
10h 16m
Waning Gibbous, 72% of the Moon is Illuminated
Nov 17
Waning Gibbous
Nov 19
Last Quarter
Nov 26
New
Dec 3
First Quarter
Dec 11
Full

Hourly Weather History & Observations

Time (PST) Temp. Dew Point Humidity Pressure Visibility Wind Dir Wind Speed Gust Speed Precip Events Conditions
12:00 AM 51.8 °F 21.2 °F 30% 30.15 in 10.0 mi NW 11.5 mph - N/A   Clear
12:20 AM 51.8 °F 21.2 °F 30% 30.15 in 10.0 mi NNW 10.4 mph - N/A   Clear
12:40 AM 50.0 °F 21.2 °F 32% 30.15 in 10.0 mi NNW 9.2 mph - N/A   Clear
1:00 AM 50.0 °F 21.2 °F 32% 30.15 in 10.0 mi North 9.2 mph - N/A   Partly Cloudy
1:20 AM 50.0 °F 21.2 °F 32% 30.15 in 10.0 mi NNW 11.5 mph - N/A   Clear
1:40 AM 50.0 °F 21.2 °F 32% 30.15 in 10.0 mi NNW 9.2 mph - N/A   Partly Cloudy
2:20 AM 50.0 °F 19.4 °F 30% 30.15 in 10.0 mi Calm Calm - N/A   Clear
2:40 AM 50.0 °F 19.4 °F 30% 30.15 in 10.0 mi NNW 9.2 mph - N/A   Clear
3:00 AM 50.0 °F 19.4 °F 30% 30.15 in 10.0 mi NNW 4.6 mph - N/A   Clear
3:20 AM 50.0 °F 19.4 °F 30% 30.15 in 10.0 mi NNW 5.8 mph - N/A   Clear
3:40 AM 48.2 °F 19.4 °F 32% 30.15 in 10.0 mi Calm Calm - N/A   Clear
4:00 AM 50.0 °F 19.4 °F 30% 30.15 in 10.0 mi North 6.9 mph - N/A   Clear
4:20 AM 50.0 °F 19.4 °F 30% 30.15 in 10.0 mi North 5.8 mph - N/A   Clear
4:40 AM 50.0 °F 19.4 °F 30% 30.16 in 10.0 mi ENE 4.6 mph - N/A   Clear
5:40 AM 48.2 °F 17.6 °F 30% 30.17 in 10.0 mi North 10.4 mph - N/A   Partly Cloudy
6:00 AM 48.2 °F 17.6 °F 30% 30.17 in 10.0 mi Calm Calm - N/A   Clear
6:20 AM 50.0 °F 17.6 °F 28% 30.18 in 10.0 mi SSE 6.9 mph - N/A   Clear
6:40 AM 50.0 °F 17.6 °F 28% 30.18 in 10.0 mi Calm Calm - N/A   Clear
7:00 AM 50.0 °F 17.6 °F 28% 30.19 in 10.0 mi Calm Calm - N/A   Clear
7:20 AM 51.8 °F 17.6 °F 26% 30.20 in 10.0 mi West 3.5 mph - N/A   Clear
7:40 AM 57.2 °F 19.4 °F 23% 30.20 in 10.0 mi NW 5.8 mph - N/A   Clear
8:00 AM 60.8 °F 17.6 °F 19% 30.21 in 10.0 mi Calm Calm - N/A   Clear
8:20 AM 60.8 °F 17.6 °F 19% 30.21 in 10.0 mi NE 3.5 mph - N/A   Clear
8:40 AM 62.6 °F 17.6 °F 18% 30.21 in 10.0 mi NE 5.8 mph - N/A   Clear
9:00 AM 64.4 °F 17.6 °F 16% 30.21 in 10.0 mi ENE 8.1 mph - N/A   Clear
9:20 AM 66.2 °F 17.6 °F 15% 30.21 in 10.0 mi ENE 8.1 mph - N/A   Clear
9:40 AM 68.0 °F 17.6 °F 15% 30.21 in 10.0 mi East 6.9 mph - N/A   Clear
10:00 AM 68.0 °F 17.6 °F 15% 30.20 in 10.0 mi ENE 9.2 mph - N/A   Clear
10:20 AM 68.0 °F 17.6 °F 15% 30.20 in 10.0 mi East 8.1 mph - N/A   Clear
10:40 AM 69.8 °F 17.6 °F 14% 30.19 in 10.0 mi ENE 8.1 mph - N/A   Clear
11:00 AM 69.8 °F 17.6 °F 14% 30.18 in 10.0 mi ENE 8.1 mph - N/A   Clear
11:20 AM 71.6 °F 17.6 °F 13% 30.17 in 10.0 mi NE 8.1 mph - N/A   Clear
11:40 AM 71.6 °F 19.4 °F 14% 30.15 in 10.0 mi ENE 5.8 mph - N/A   Clear
12:00 PM 73.4 °F 19.4 °F 13% 30.14 in 10.0 mi ENE 8.1 mph - N/A   Clear
12:20 PM 73.4 °F 19.4 °F 13% 30.14 in 10.0 mi NE 8.1 mph - N/A   Clear
12:40 PM 73.4 °F 19.4 °F 13% 30.13 in 10.0 mi NE 5.8 mph - N/A   Clear
1:00 PM 73.4 °F 19.4 °F 13% 30.12 in 10.0 mi East 6.9 mph - N/A   Clear
1:20 PM 73.4 °F 19.4 °F 13% 30.11 in 10.0 mi Variable 3.5 mph - N/A   Clear
1:40 PM 75.2 °F 19.4 °F 12% 30.10 in 10.0 mi NE 4.6 mph - N/A   Clear
2:00 PM 75.2 °F 19.4 °F 12% 30.10 in 10.0 mi NNE 5.8 mph - N/A   Clear
2:20 PM 75.2 °F 19.4 °F 12% 30.09 in 10.0 mi NNE 6.9 mph - N/A   Clear
2:40 PM 75.2 °F 19.4 °F 12% 30.09 in 10.0 mi Calm Calm - N/A   Clear
3:00 PM 75.2 °F 19.4 °F 12% 30.09 in 10.0 mi East 4.6 mph 12.7 mph N/A   Clear
3:20 PM 75.2 °F 19.4 °F 12% 30.10 in 10.0 mi Variable 4.6 mph - N/A   Clear
3:40 PM 75.2 °F 19.4 °F 12% 30.10 in 10.0 mi ENE 6.9 mph - N/A   Clear
4:00 PM 75.2 °F 19.4 °F 12% 30.10 in 10.0 mi East 4.6 mph - N/A   Clear
4:20 PM 75.2 °F 19.4 °F 12% 30.10 in 10.0 mi Calm Calm - N/A   Clear
4:40 PM 71.6 °F 17.6 °F 13% 30.11 in 10.0 mi Calm Calm - N/A   Clear
5:00 PM 71.6 °F 17.6 °F 13% 30.11 in 10.0 mi Calm Calm - N/A   Clear
5:20 PM 64.4 °F 15.8 °F 15% 30.12 in 10.0 mi North 5.8 mph - N/A   Clear
5:40 PM 60.8 °F 15.8 °F 17% 30.12 in 10.0 mi NNW 8.1 mph - N/A   Clear
6:00 PM 59.0 °F 15.8 °F 19% 30.12 in 10.0 mi NNW 10.4 mph - N/A   Clear
6:20 PM 57.2 °F 15.8 °F 20% 30.12 in 10.0 mi NNW 8.1 mph - N/A   Clear
6:40 PM 57.2 °F 15.8 °F 20% 30.13 in 10.0 mi NNW 9.2 mph - N/A   Clear
7:00 PM 57.2 °F 15.8 °F 20% 30.13 in 10.0 mi NNW 9.2 mph - N/A   Clear
7:20 PM 55.4 °F 15.8 °F 21% 30.13 in 10.0 mi NNW 9.2 mph - N/A   Clear
7:40 PM 57.2 °F 15.8 °F 20% 30.13 in 10.0 mi NNW 10.4 mph - N/A   Clear
8:00 PM 57.2 °F 15.8 °F 20% 30.14 in 10.0 mi NNW 10.4 mph - N/A   Clear
8:20 PM 57.2 °F 15.8 °F 20% 30.13 in 10.0 mi NNW 11.5 mph - N/A   Clear
8:40 PM 59.0 °F 15.8 °F 19% 30.13 in 10.0 mi NNW 11.5 mph - N/A   Clear
9:00 PM 59.0 °F 15.8 °F 19% 30.13 in 10.0 mi NNW 10.4 mph - N/A   Clear
9:20 PM 57.2 °F 15.8 °F 20% 30.12 in 10.0 mi NNW 11.5 mph - N/A   Clear
9:40 PM 55.4 °F 15.8 °F 21% 30.12 in 10.0 mi NNW 10.4 mph - N/A   Clear
10:00 PM 55.4 °F 14.0 °F 20% 30.12 in 10.0 mi North 10.4 mph - N/A   Clear
10:20 PM 55.4 °F 14.0 °F 20% 30.12 in 10.0 mi North 9.2 mph - N/A   Clear
10:40 PM 51.8 °F 14.0 °F 22% 30.12 in 10.0 mi North 4.6 mph - N/A   Partly Cloudy
11:00 PM 48.2 °F 12.2 °F 24% 30.12 in 10.0 mi North 3.5 mph - N/A   Clear
11:20 PM 50.0 °F 12.2 °F 22% 30.12 in 10.0 mi SW 4.6 mph - N/A   Clear
11:40 PM 48.2 °F 12.2 °F 24% 30.11 in 10.0 mi West 3.5 mph - N/A   Partly Cloudy